This is the latest recevied weather packets stored in our database for station/object DF1GD-10. If no packets are shown the sender has not sent any weather packets the latest 10 day(s).
| Time | Temp. | Humidity | Pressure | Rain* | Wind** | Luminosity | Snow |
|---|---|---|---|---|---|---|---|
| 1788684243 | 15.56° C | 48% | 1025.3 hPa | - | - | - | - |
| 1788683343 | 15° C | 50% | 1025.5 hPa | - | - | - | - |
| 1788682442 | 14.44° C | 51% | 1025.5 hPa | - | - | - | - |
| 1788681542 | 13.89° C | 52% | 1025.6 hPa | - | - | - | - |
| 1788680642 | 13.89° C | 53% | 1025.5 hPa | - | - | - | - |
| 1788679742 | 13.89° C | 54% | 1025.5 hPa | - | - | - | - |
| 1788678842 | 13.33° C | 54% | 1025.4 hPa | - | - | - | - |
| 1788677942 | 12.78° C | 54% | 1025.4 hPa | - | - | - | - |
| 1788677042 | 12.78° C | 54% | 1025.4 hPa | - | - | - | - |
| 1788676141 | 12.78° C | 53% | 1025.7 hPa | - | - | - | - |
| 1788675241 | 12.22° C | 54% | 1025.6 hPa | - | - | - | - |
| 1788674341 | 12.22° C | 56% | 1025.6 hPa | - | - | - | - |
| 1788673441 | 11.67° C | 56% | 1025.6 hPa | - | - | - | - |
| 1788672541 | 11.67° C | 57% | 1025.4 hPa | - | - | - | - |
| 1788671641 | 11.67° C | 57% | 1025.4 hPa | - | - | - | - |
| 1788670740 | 11.67° C | 58% | 1025.3 hPa | - | - | - | - |
| 1788669840 | 11.67° C | 57% | 1025.2 hPa | - | - | - | - |
| 1788668940 | 11.67° C | 56% | 1025.2 hPa | - | - | - | - |
| 1788668040 | 11.67° C | 55% | 1025.2 hPa | - | - | - | - |
| 1788667140 | 12.22° C | 56% | 1025.1 hPa | - | - | - | - |
| 1788666240 | 12.22° C | 56% | 1025.2 hPa | - | - | - | - |
| 1788665339 | 12.22° C | 56% | 1025.2 hPa | - | - | - | - |
| 1788664439 | 12.22° C | 54% | 1025.2 hPa | - | - | - | - |
| 1788663539 | 12.78° C | 54% | 1025.1 hPa | - | - | - | - |
| 1788662639 | 12.78° C | 53% | 1025.1 hPa | - | - | - | - |
* Rain since midnight (hover to see other rain measurements)
** Current wind speed in m/s (hover to see current wind gust speed)